TimeCDT,TemperatureF,Dew PointF,Humidity,Sea Level PressureIn,VisibilityMPH,Wind Direction,Wind SpeedMPH,Gust SpeedMPH,PrecipitationIn,Events,Conditions,WindDirDegrees,DateUTC
12:10 AM,75.2,71.6,89,29.97,10.0,SE,3.5,-,N/A,,Mostly Cloudy,140,2013-08-08 05:10:00
12:53 AM,75.9,71.1,85,29.95,10.0,South,5.8,-,N/A,,Overcast,180,2013-08-08 05:53:00
1:53 AM,78.1,72.0,81,29.94,10.0,South,10.4,-,0.00,,Mostly Cloudy,190,2013-08-08 06:53:00
2:53 AM,75.0,71.1,87,29.93,10.0,Calm,Calm,-,0.00,,Partly Cloudy,0,2013-08-08 07:53:00
3:53 AM,73.9,71.1,91,29.92,10.0,South,4.6,-,N/A,,Clear,190,2013-08-08 08:53:00
4:53 AM,73.0,70.0,90,29.94,10.0,SSE,3.5,-,N/A,,Mostly Cloudy,160,2013-08-08 09:53:00
5:18 AM,73.4,71.6,94,29.96,10.0,South,3.5,-,N/A,,Overcast,170,2013-08-08 10:18:00
5:53 AM,73.9,71.1,91,29.94,10.0,Calm,Calm,-,N/A,,Overcast,0,2013-08-08 10:53:00
6:53 AM,73.9,71.1,91,29.94,10.0,SSE,4.6,-,N/A,,Overcast,160,2013-08-08 11:53:00
7:53 AM,75.0,71.1,87,29.96,10.0,South,5.8,-,N/A,,Overcast,190,2013-08-08 12:53:00
8:49 AM,77.0,71.6,83,29.98,10.0,SSW,5.8,-,N/A,,Overcast,200,2013-08-08 13:49:00
8:53 AM,77.0,72.0,84,29.97,10.0,SSW,6.9,-,N/A,,Overcast,200,2013-08-08 13:53:00
9:45 AM,80.6,73.4,79,29.99,10.0,SSW,8.1,-,N/A,,Mostly Cloudy,210,2013-08-08 14:45:00
9:53 AM,80.1,73.0,79,29.97,10.0,SW,8.1,-,N/A,,Mostly Cloudy,220,2013-08-08 14:53:00
10:53 AM,80.1,73.9,81,29.98,10.0,SW,6.9,-,N/A,,Overcast,230,2013-08-08 15:53:00
11:19 AM,82.4,73.4,74,29.99,10.0,SSW,9.2,-,N/A,,Mostly Cloudy,210,2013-08-08 16:19:00
11:53 AM,82.9,73.9,74,29.97,10.0,SSW,8.1,-,N/A,,Scattered Clouds,210,2013-08-08 16:53:00
12:10 PM,82.4,73.4,74,29.98,10.0,Variable,5.8,-,N/A,,Mostly Cloudy,0,2013-08-08 17:10:00
12:53 PM,82.0,73.0,74,29.96,10.0,South,15.0,-,N/A,,Overcast,190,2013-08-08 17:53:00
1:44 PM,82.4,73.4,74,29.97,10.0,South,13.8,-,N/A,,Scattered Clouds,180,2013-08-08 18:44:00
1:51 PM,84.2,73.4,70,29.97,10.0,South,12.7,-,N/A,,Mostly Cloudy,180,2013-08-08 18:51:00
1:53 PM,84.0,73.0,69,29.95,10.0,South,15.0,19.6,N/A,,Mostly Cloudy,180,2013-08-08 18:53:00
2:31 PM,82.4,71.6,70,29.96,10.0,SSW,9.2,-,N/A,,Partly Cloudy,210,2013-08-08 19:31:00
2:53 PM,84.0,73.0,69,29.94,10.0,South,10.4,-,N/A,,Partly Cloudy,170,2013-08-08 19:53:00
3:53 PM,82.9,73.0,72,29.95,10.0,SSW,10.4,-,N/A,,Scattered Clouds,200,2013-08-08 20:53:00
4:53 PM,81.0,72.0,74,29.93,10.0,SSW,11.5,-,N/A,,Clear,200,2013-08-08 21:53:00
5:53 PM,78.1,73.0,84,29.90,10.0,SSE,9.2,-,0.00,Rain,Light Rain,160,2013-08-08 22:53:00
6:53 PM,77.0,73.0,88,29.91,10.0,SSW,10.4,-,0.00,,Clear,200,2013-08-08 23:53:00
7:53 PM,77.0,72.0,84,29.92,10.0,South,8.1,-,N/A,,Clear,180,2013-08-09 00:53:00
8:53 PM,75.9,72.0,87,29.95,10.0,South,6.9,-,N/A,,Clear,190,2013-08-09 01:53:00
9:53 PM,75.9,71.1,85,29.97,10.0,SSW,8.1,-,N/A,,Scattered Clouds,210,2013-08-09 02:53:00
10:53 PM,75.0,71.1,87,29.95,10.0,SW,3.5,-,N/A,,Mostly Cloudy,220,2013-08-09 03:53:00
11:53 PM,75.0,71.1,87,29.93,10.0,South,6.9,-,N/A,,Mostly Cloudy,180,2013-08-09 04:53:00